DW2213 Weather Reports


Display with metric or nautical units.
time (UTC)temp
F
wind
direction
speed
MPH
gust
MPH
rain 1hr
in
rain 24hr
in
rain mn
in
humidity
%
barometer
mb
20260901190304 81 142 0.0 0.0 0.00 0.00 0.00 80 1012.9
20260901185804 81 142 0.0 0.0 0.00 0.00 0.00 80 1012.8
20260901185306 81 142 0.0 0.0 0.00 0.00 0.00 80 1012.8
20260901184804 81 142 0.0 0.0 0.00 0.00 0.00 80 1012.8
20260901184304 81 142 0.0 0.0 0.00 0.00 0.00 80 1012.7
20260901183803 81 142 0.0 0.0 0.00 0.00 0.00 80 1012.6
20260901183304 81 142 0.0 0.0 0.00 0.00 0.00 80 1012.6
20260901182305 82 142 0.0 5.0 0.00 0.00 0.00 79 1012.5
20260901181803 82 150 0.0 2.0 0.00 0.00 0.00 79 1012.5
20260901181304 82 150 0.0 1.0 0.00 0.00 0.00 79 1012.7
20260901180803 82 150 0.0 2.0 0.00 0.00 0.00 78 1012.7
20260901180304 82 148 1.0 5.0 0.00 0.00 0.00 78 1012.7
20260901175804 82 138 1.0 2.0 0.00 0.00 0.00 78 1012.6
20260901175305 82 137 1.0 3.0 0.00 0.00 0.00 77 1012.7
20260901174804 82 140 0.0 2.0 0.00 0.00 0.00 77 1012.7
20260901174303 83 137 0.0 2.0 0.00 0.00 0.00 76 1012.8
20260901173804 83 136 1.0 5.0 0.00 0.00 0.00 76 1012.8
20260901172803 83 132 1.0 5.0 0.00 0.00 0.00 75 1012.8
20260901171803 84 143 1.0 3.0 0.00 0.00 0.00 74 1012.7
20260901171304 84 142 1.0 3.0 0.00 0.00 0.00 73 1012.7
20260901170804 84 140 1.0 5.0 0.00 0.00 0.00 73 1012.7
20260901170305 84 139 0.0 3.0 0.00 0.00 0.00 72 1012.6
20260901165306 85 129 0.0 2.0 0.00 0.00 0.00 71 1012.7
20260901164805 85 154 1.0 3.0 0.00 0.00 0.00 71 1012.6
20260901164305 85 125 1.0 5.0 0.00 0.00 0.00 71 1012.7
20260901163305 85 138 0.0 5.0 0.00 0.00 0.00 71 1012.6
20260901162306 85 126 0.0 2.0 0.00 0.00 0.00 72 1012.7
20260901161805 84 129 0.0 2.0 0.00 0.00 0.00 73 1012.7
20260901161305 84 127 0.0 3.0 0.00 0.00 0.00 74 1012.7
20260901160805 84 123 1.0 3.0 0.00 0.00 0.00 73 1012.7
20260901160306 83 122 1.0 3.0 0.00 0.00 0.00 75 1012.9
20260901155805 83 140 0.0 5.0 0.00 0.00 0.00 77 1012.9
20260901155306 83 139 1.0 3.0 0.00 0.00 0.00 78 1013.0
20260901154805 82 132 0.0 0.0 0.00 0.00 0.00 79 1012.9
20260901154304 82 133 1.0 5.0 0.00 0.00 0.00 79 1013.1
20260901153805 82 137 1.0 5.0 0.00 0.00 0.00 79 1012.1
20260901153305 82 145 1.0 8.0 0.00 0.00 0.00 79 1012.7
20260901152805 82 139 1.0 3.0 0.00 0.00 0.00 79 1012.4
20260901152306 82 145 0.0 0.0 0.00 0.00 0.00 78 1013.2
20260901151805 82 144 1.0 3.0 0.00 0.00 0.00 78 1013.8
20260901151305 82 120 0.0 0.0 0.00 0.00 0.00 76 1013.7
20260901150805 82 120 0.0 1.0 0.00 0.00 0.00 76 1013.2
20260901150305 83 158 1.0 2.0 0.00 0.00 0.00 75 1013.2
20260901145805 84 134 1.0 6.0 0.00 0.00 0.00 73 1013.1
20260901145306 84 150 2.0 6.0 0.00 0.00 0.00 71 1013.5
20260901144805 84 154 2.0 6.0 0.00 0.00 0.00 70 1013.9
20260901144304 84 155 1.0 6.0 0.00 0.00 0.00 70 1013.8
20260901143804 84 156 2.0 7.0 0.00 0.00 0.00 70 1013.5
20260901143305 84 151 1.0 3.0 0.00 0.00 0.00 71 1013.6
20260901142805 84 161 0.0 5.0 0.00 0.00 0.00 71 1013.5
20260901141305 85 124 1.0 6.0 0.00 0.00 0.00 65 1013.4
20260901140805 85 126 0.0 0.0 0.00 0.00 0.00 63 1014.0
20260901135804 86 127 0.0 3.0 0.00 0.00 0.00 60 1013.9
20260901135305 86 137 1.0 2.0 0.00 0.00 0.00 61 1014.0
20260901134805 86 156 0.0 0.0 0.00 0.00 0.00 61 1014.5
20260901134305 86 157 0.0 0.0 0.00 0.00 0.00 63 1014.5
20260901133805 86 157 0.0 0.0 0.00 0.00 0.00 62 1014.7
20260901132805 86 157 1.0 3.0 0.00 0.00 0.00 64 1014.8
20260901132307 86 153 0.0 3.0 0.00 0.00 0.00 63 1014.8
20260901131805 86 152 1.0 5.0 0.00 0.00 0.00 64 1014.9
20260901131305 86 145 0.0 3.0 0.00 0.00 0.00 67 1014.9
20260901130805 85 142 1.0 5.0 0.00 0.00 0.00 65 1014.9
20260901130304 85 136 0.0 3.0 0.00 0.00 0.00 67 1014.8
20260901125308 85 136 1.0 3.0 0.00 0.00 0.00 68 1014.3
20260901124804 86 115 0.0 3.0 0.00 0.00 0.00 65 1014.3
20260901124304 85 78 0.0 3.0 0.00 0.00 0.00 67 1014.4
20260901123805 85 138 0.0 2.0 0.00 0.00 0.00 66 1014.4
20260901123305 85 138 1.0 3.0 0.00 0.00 0.00 67 1014.5
20260901122805 86 135 1.0 5.0 0.00 0.00 0.00 66 1014.4
20260901122306 86 147 1.0 3.0 0.00 0.00 0.00 67 1014.2
20260901121305 86 134 1.0 5.0 0.00 0.00 0.00 65 1014.5
20260901120805 86 150 1.0 5.0 0.00 0.00 0.00 64 1014.5
20260901120305 86 121 1.0 5.0 0.00 0.00 0.00 64 1014.6
20260901115805 86 145 1.0 6.0 0.00 0.00 0.00 64 1014.8
20260901115306 87 147 2.0 6.0 0.00 0.00 0.00 64 1014.9
20260901114805 87 149 1.0 5.0 0.00 0.00 0.00 64 1014.9
20260901114305 86 124 1.0 5.0 0.00 0.00 0.00 66 1014.7
20260901113805 86 129 2.0 5.0 0.00 0.00 0.00 66 1014.9
20260901112804 86 118 0.0 2.0 0.00 0.00 0.00 66 1015.2
20260901112306 86 118 0.0 3.0 0.00 0.00 0.00 66 1015.1
20260901111804 85 107 0.0 2.0 0.00 0.00 0.00 66 1015.1
20260901110804 86 144 1.0 2.0 0.00 0.00 0.00 65 1015.3
20260901110304 86 100 0.0 3.0 0.00 0.00 0.00 65 1015.4
20260901105305 87 117 1.0 5.0 0.00 0.00 0.00 63 1015.1
20260901104804 88 113 1.0 7.0 0.00 0.00 0.00 64 1014.9
20260901104305 87 143 1.0 6.0 0.00 0.00 0.00 66 1015.1
20260901103804 87 136 1.0 3.0 0.00 0.00 0.00 65 1015.0
20260901103305 87 150 2.0 9.0 0.00 0.00 0.00 65 1015.1
20260901102805 87 144 1.0 9.0 0.00 0.00 0.00 66 1015.2
20260901102306 86 139 3.0 6.0 0.00 0.00 0.00 66 1015.4
20260901101805 86 139 0.0 0.0 0.00 0.00 0.00 66 1015.4
20260901101305 86 153 0.0 5.0 0.00 0.00 0.00 67 1015.4
20260901100804 86 133 1.0 6.0 0.00 0.00 0.00 67 1015.5
20260901100305 87 127 2.0 7.0 0.00 0.00 0.00 65 1015.5
20260901095306 87 101 0.0 6.0 0.00 0.00 0.00 65 1015.4
20260901094805 87 157 2.0 7.0 0.00 0.00 0.00 67 1015.4
20260901093804 87 138 1.0 5.0 0.00 0.00 0.00 67 1015.3
20260901092805 87 135 3.0 7.0 0.00 0.00 0.00 68 1015.4
20260901092305 86 142 1.0 8.0 0.00 0.00 0.00 70 1015.3
20260901091805 86 153 1.0 5.0 0.00 0.00 0.00 70 1015.4
20260901090304 84 126 1.0 5.0 0.00 0.00 0.00 74 1015.3
20260901085805 84 140 2.0 5.0 0.00 0.00 0.00 74 1015.2
20260901085306 84 147 2.0 7.0 0.00 0.00 0.00 75 1015.3
20260901084804 83 138 1.0 5.0 0.00 0.00 0.00 77 1015.2
20260901084305 83 150 0.0 3.0 0.00 0.00 0.00 76 1015.2
20260901083305 83 133 1.0 6.0 0.00 0.00 0.00 78 1015.1
20260901082805 83 138 0.0 5.0 0.00 0.00 0.00 77 1015.0
20260901081804 83 128 1.0 5.0 0.00 0.00 0.00 77 1015.0
20260901081305 83 123 0.0 3.0 0.00 0.00 0.00 78 1015.0
20260901080805 83 114 1.0 5.0 0.00 0.00 0.00 77 1014.9
20260901075805 83 131 0.0 5.0 0.00 0.00 0.00 77 1014.6
20260901075307 83 144 1.0 5.0 0.00 0.00 0.00 77 1014.7
20260901074805 83 138 1.0 5.0 0.00 0.00 0.00 78 1014.6
20260901074305 83 122 0.0 2.0 0.00 0.00 0.00 79 1014.7
20260901073304 82 129 1.0 3.0 0.00 0.00 0.00 81 1014.8
20260901071804 81 139 0.0 2.0 0.00 0.00 0.00 84 1014.6
20260901071305 81 91 0.0 2.0 0.00 0.00 0.00 85 1014.6
20260901070805 80 82 0.0 0.0 0.00 0.00 0.00 85 1014.5
20260901070305 80 82 0.0 2.0 0.00 0.00 0.00 86 1014.3
20260901065805 80 80 0.0 0.0 0.00 0.00 0.00 86 1014.2
20260901065305 80 80 0.0 0.0 0.00 0.00 0.00 86 1014.1
20260901064804 80 80 0.0 1.0 0.00 0.00 0.00 87 1014.0
20260901064305 80 80 0.0 2.0 0.00 0.00 0.00 87 1014.1
20260901063805 79 77 0.0 2.0 0.00 0.00 0.00 87 1014.1
20260901063304 79 75 0.0 2.0 0.00 0.00 0.00 88 1014.2
20260901062805 79 66 0.0 3.0 0.00 0.00 0.00 88 1013.7
20260901062309 78 62 0.0 0.0 0.00 0.00 0.00 88 1013.7
20260901061804 78 63 0.0 0.0 0.00 0.00 0.00 88 1013.9
20260901061304 78 49 0.0 0.0 0.00 0.00 0.00 88 1014.1
20260901060804 78 49 0.0 0.0 0.00 0.00 0.00 88 1013.9
20260901060304 78 49 0.0 0.0 0.00 0.00 0.00 89 1013.9
20260901055805 77 49 0.0 0.0 0.00 0.00 0.00 89 1013.8
20260901055306 77 49 0.0 0.0 0.00 0.00 0.00 89 1013.9
20260901054804 77 49 0.0 0.0 0.00 0.00 0.00 89 1013.9
20260901053804 77 49 0.0 0.0 0.00 0.00 0.00 89 1013.8
20260901053304 77 49 0.0 0.0 0.00 0.00 0.00 89 1013.5
20260901052805 77 47 0.0 0.0 0.00 0.00 0.00 89 1013.5
20260901052307 77 47 0.0 0.0 0.00 0.00 0.00 89 1013.5
20260901051304 77 47 0.0 0.0 0.00 0.00 0.00 89 1013.6
20260901050804 77 47 0.0 0.0 0.00 0.00 0.00 89 1013.6
20260901050304 77 48 0.0 0.0 0.00 0.00 0.00 89 1013.4
20260901045804 77 46 0.0 0.0 0.00 0.00 0.00 89 1013.4
20260901044804 77 44 0.0 0.0 0.00 0.00 0.00 90 1013.2
20260901044304 77 47 0.0 1.0 0.00 0.00 0.00 90 1013.1
20260901043804 78 47 0.0 2.0 0.00 0.00 0.00 90 1013.0
20260901043304 78 37 0.0 0.0 0.00 0.00 0.00 90 1013.2
20260901042805 78 19 0.0 0.0 0.00 0.00 0.00 90 1013.2
20260901041804 78 31 0.0 0.0 0.00 0.00 0.00 90 1013.5
20260901041305 78 31 0.0 0.0 0.00 0.00 0.00 90 1013.6
20260901040804 78 31 0.0 0.0 0.00 0.00 0.00 90 1013.6
20260901040305 78 31 0.0 0.0 0.00 0.00 0.00 90 1013.7
20260901035805 78 31 0.0 0.0 0.00 0.00 0.00 90 1013.6
20260901035305 78 31 0.0 0.0 0.00 0.00 0.00 90 1013.6
20260901034804 78 31 0.0 0.0 0.00 0.00 0.00 90 1013.6
20260901034304 78 31 0.0 0.0 0.00 0.00 0.00 90 1013.6
20260901033804 78 31 0.0 0.0 0.00 0.00 0.00 90 1013.6
20260901032804 78 31 0.0 0.0 0.00 0.00 0.00 90 1013.6
20260901032306 78 31 0.0 0.0 0.00 0.00 0.00 90 1013.7
20260901031805 78 31 0.0 0.0 0.00 0.00 0.00 89 1013.8
20260901031304 78 31 0.0 0.0 0.00 0.00 0.00 89 1013.8
20260901030805 78 31 0.0 0.0 0.00 0.00 0.00 89 1013.8
20260901030304 78 31 0.0 0.0 0.00 0.00 0.00 89 1013.8
20260901025804 78 31 0.0 0.0 0.00 0.00 0.00 89 1013.7
20260901024304 78 31 0.0 0.0 0.00 0.00 0.00 89 1013.7
20260901023804 78 31 0.0 0.0 0.00 0.00 0.00 88 1013.7
20260901023304 78 31 0.0 0.0 0.00 0.00 0.00 88 1013.8
20260901022805 78 31 0.0 0.0 0.00 0.00 0.00 88 1013.9
20260901022306 79 31 0.0 0.0 0.00 0.00 0.00 88 1013.9
20260901021804 79 31 0.0 0.0 0.00 0.00 0.00 88 1014.0
20260901021304 79 31 0.0 0.0 0.00 0.00 0.00 88 1014.0
20260901020804 79 31 0.0 0.0 0.00 0.00 0.00 88 1014.0
20260901020304 79 31 0.0 0.0 0.00 0.00 0.00 88 1014.0
20260901015804 79 31 0.0 0.0 0.00 0.00 0.00 88 1014.0
20260901015305 79 31 0.0 0.0 0.00 0.00 0.00 88 1014.0
20260901014804 79 31 0.0 0.0 0.00 0.00 0.00 88 1014.1
20260901014304 79 31 0.0 0.0 0.00 0.00 0.00 88 1014.2
20260901013804 79 31 0.0 0.0 0.00 0.00 0.00 88 1014.2
20260901012306 79 31 0.0 0.0 0.00 0.00 0.00 88 1014.3
20260901011804 79 31 0.0 0.0 0.00 0.00 0.00 88 1014.3
20260901011304 79 31 0.0 0.0 0.00 0.00 0.00 87 1014.3
20260901010804 79 31 0.0 0.0 0.00 0.00 0.00 87 1014.5
20260901005307 79 31 0.0 0.0 0.00 0.00 0.00 87 1014.6
20260901004804 79 31 0.0 0.0 0.00 0.00 0.00 87 1014.6
20260901004304 79 31 0.0 0.0 0.00 0.00 0.00 87 1014.6
20260901003805 79 36 0.0 0.0 0.00 0.00 0.00 87 1014.7
20260901003304 79 44 1.0 2.0 0.00 0.00 0.00 87 1014.7
20260901002805 79 44 0.0 2.0 0.00 0.00 0.00 87 1014.6
20260901002305 79 44 0.0 1.0 0.00 0.00 0.00 87 1014.7
20260901001804 79 44 0.0 1.0 0.00 0.00 0.00 87 1014.7
20260901001304 79 44 0.0 1.0 0.00 0.00 0.00 87 1014.6
20260901000804 80 43 0.0 2.0 0.00 0.00 0.00 87 1014.6
20260901000304 80 347 0.0 1.0 0.00 0.00 0.00 87 1014.7
20260831235804 80 24 0.0 3.0 0.00 0.00 0.00 87 1014.7
20260831235306 80 34 0.0 0.0 0.00 0.00 0.00 87 1014.8
20260831234804 80 34 0.0 3.0 0.00 0.00 0.00 87 1014.8
20260831234305 80 27 0.0 2.0 0.00 0.00 0.00 87 1014.8
20260831233804 80 25 0.0 2.0 0.00 0.00 0.00 87 1014.8
20260831233305 80 0 0.0 3.0 0.00 0.00 0.00 87 1014.8
20260831232804 80 0 0.0 3.0 0.00 0.00 0.00 87 1014.8
20260831231304 80 19 0.0 3.0 0.00 0.00 0.00 86 1014.8
20260831230803 80 102 0.0 1.0 0.00 0.00 0.00 86 1014.8
20260831230304 80 102 0.0 1.0 0.00 0.00 0.00 86 1014.8
20260831225804 80 102 0.0 0.0 0.00 0.00 0.00 86 1014.8
20260831225306 80 102 0.0 1.0 0.00 0.00 0.00 86 1014.7
20260831224304 81 102 0.0 2.0 0.00 0.00 0.00 86 1014.8
20260831223804 81 102 0.0 1.0 0.00 0.00 0.00 85 1014.7
20260831223304 80 102 0.0 0.0 0.00 0.00 0.00 85 1014.7
20260831222804 80 102 0.0 0.0 0.00 0.00 0.00 85 1014.8
20260831221804 80 102 0.0 0.0 0.00 0.00 0.00 85 1014.7
20260831220819 80 102 0.0 2.0 0.00 0.00 0.00 85 1014.6
20260831220305 80 87 0.0 1.0 0.00 0.00 0.00 85 1014.5
20260831215804 80 86 0.0 0.0 0.00 0.00 0.00 85 1014.4
20260831215306 80 86 0.0 1.0 0.00 0.00 0.00 85 1014.4
20260831214304 81 86 0.0 1.0 0.00 0.00 0.00 85 1014.4
20260831213804 81 86 0.0 0.0 0.00 0.00 0.00 85 1014.4
20260831213304 81 86 0.0 0.0 0.00 0.00 0.00 85 1014.3
20260831212804 81 86 0.0 0.0 0.00 0.00 0.00 85 1014.2
20260831212306 81 86 0.0 1.0 0.00 0.00 0.00 85 1014.2
20260831211804 81 86 0.0 2.0 0.00 0.00 0.00 85 1014.2
20260831211304 81 86 0.0 2.0 0.00 0.00 0.00 85 1014.1
20260831210304 81 104 0.0 1.0 0.00 0.00 0.00 85 1014.1
20260831205804 81 104 0.0 2.0 0.00 0.00 0.00 85 1014.1
20260831205305 81 104 0.0 2.0 0.00 0.00 0.00 85 1014.1
20260831203803 81 107 0.0 2.0 0.00 0.00 0.00 84 1014.0
20260831203304 81 102 0.0 2.0 0.00 0.00 0.00 84 1013.9
20260831201804 81 132 0.0 2.0 0.00 0.00 0.00 83 1013.7
20260831201304 81 135 1.0 5.0 0.00 0.00 0.00 83 1013.7
20260831200803 81 78 0.0 2.0 0.00 0.00 0.00 83 1013.7
20260831200303 81 77 0.0 0.0 0.00 0.00 0.00 83 1013.7
20260831195804 81 77 0.0 2.0 0.00 0.00 0.00 83 1013.6
20260831195306 81 79 0.0 3.0 0.00 0.00 0.00 83 1013.5
20260831194803 81 85 0.0 2.0 0.00 0.00 0.00 82 1013.3
20260831194304 81 85 1.0 2.0 0.00 0.00 0.00 82 1013.2
20260831193804 81 9 0.0 1.0 0.00 0.00 0.00 82 1013.1
20260831193304 81 10 0.0 0.0 0.00 0.00 0.00 82 1012.9
20260831192804 81 9 1.0 3.0 0.00 0.00 0.00 82 1012.9
20260831192305 81 66 0.0 2.0 0.00 0.00 0.00 82 1012.8
20260831191303 81 63 0.0 1.0 0.00 0.00 0.00 82 1012.7
20260831190804 81 56 0.0 2.0 0.00 0.00 0.00 82 1012.6